Terminal Aerodrome Forecast
Issued by NWS Grand Forks, ND

Home | Current Version | Previous Version | Graphics & Text | Print | Product List | Glossary On
Versions: 1 2 3 4 5 6 7 8 9 10 11 12 13 14 15 16 17 18 19 20
000
FTUS43 KFGF 181100
TAFGFK
TAF
KGFK 181122Z 1812/1912 23006KT P6SM VCSH SCT035 BKN080
     FM181600 28008KT P6SM VCTS BKN035CB
     FM181900 34009KT P6SM VCTS BKN070CB
     FM190000 33005KT P6SM SKC=

USA.gov is the U.S. government's official web portal to all federal, state and local government web resources and services.